Wind_Speed
17 16 15 14 13 13 12 11 10 9 8 8 9 8 8 8 7 7 7 7 6 6 6 6 6 6 6 6 6 7 7 7 8 8 9 9 9 10 10 11 11 11 12
19 18 17 17 16 15 14 13 12 11 10 9 10 10 10 9 9 9 9 8 8 8 8 7 7 7 7 7 7 8 8 9 9 10 10 11 11 11 11 12 12 13 13
22 21 20 19 18 17 16 15 14 13 12 11 10 11 11 11 10 10 10 10 9 9 9 9 9 8 8 8 8 9 10 10 11 11 11 12 12 12 13 13 13 13 14
24 23 22 21 20 19 18 16 15 15 13 12 11 11 11 11 11 11 11 10 10 10 9 9 9 9 9 9 9 10 10 11 11 12 12 13 13 13 13 14 14 14 15
27 25 24 23 22 21 20 18 17 16 15 14 12 12 12 12 12 12 11 11 10 10 10 10 10 10 10 10 10 11 12 12 12 13 13 14 14 14 14 15 15 16 16
29 28 26 25 24 23 21 20 19 18 16 15 14 14 13 13 13 13 13 12 12 11 11 11 11 11 11 11 12 12 12 13 13 14 14 14 14 15 15 16 17 17 18
31 31 29 28 26 25 23 22 21 20 18 17 16 15 14 14 14 14 14 14 14 13 13 13 13 13 12 12 13 13 13 14 14 15 15 15 16 16 17 17 17 18 19
34 33 31 30 29 27 25 24 22 22 20 19 18 17 16 15 15 15 15 15 15 14 14 14 14 14 14 14 14 14 14 15 15 16 16 17 17 18 18 18 19 19 20
35 34 34 32 31 29 27 26 24 23 22 20 19 18 18 17 17 17 17 16 16 15 15 15 15 15 15 15 16 16 16 16 17 17 17 18 18 19 19 19 20 21 21
36 36 35 34 32 31 29 28 26 25 24 22 21 20 19 19 18 18 18 18 18 17 17 16 16 16 16 16 17 17 18 18 18 19 19 19 20 20 21 21 22 22 22
37 36 36 34 33 32 30 30 28 26 25 24 23 22 21 20 20 19 19 19 19 19 19 18 18 18 18 18 18 19 19 20 20 20 21 21 21 21 22 22 23 23 23
37 36 36 36 35 33 32 30 29 28 26 26 26 24 23 22 22 21 21 21 21 21 20 20 20 20 20 20 20 20 20 21 21 22 22 23 23 23 23 23 23 23 24
36 36 36 36 36 35 34 32 30 29 28 27 27 27 25 24 23 23 22 22 22 22 22 22 22 22 22 21 21 21 22 22 23 23 24 24 24 24 24 24 24 24 24
37 37 37 36 36 35 34 33 32 31 29 28 27 27 26 25 25 25 24 24 23 23 23 23 23 23 23 23 23 23 24 24 24 24 24 25 25 25 25 25 25 25 24
37 37 37 37 35 35 35 34 32 32 31 29 28 28 28 27 26 25 25 25 25 24 24 25 25 25 25 25 25 25 25 25 25 24 25 25 25 25 25 25 25 25 25
38 37 36 36 36 35 34 34 34 33 32 30 30 29 29 29 28 27 27 26 26 26 26 26 26 26 26 26 26 27 26 26 26 26 26 26 27 27 26 26 26 27 27
38 38 37 36 36 34 33 34 34 33 33 32 32 31 30 30 29 28 28 28 28 27 27 27 28 28 28 27 28 27 27 27 28 27 28 28 28 27 27 27 27 28 28
39 38 37 37 35 35 34 34 35 34 33 33 33 33 32 31 30 29 29 29 29 29 28 28 28 29 29 29 29 29 29 29 29 29 28 29 29 29 29 28 29 29 29
37 36 36 36 35 35 34 34 35 35 34 34 34 34 34 33 32 31 30 30 30 30 30 29 30 29 30 30 30 30 30 30 30 30 30 30 30 30 30 30 30 30 31
35 35 35 35 34 34 34 35 34 34 34 33 34 35 35 35 34 33 31 31 31 31 31 31 31 31 31 31 31 32 32 32 31 32 32 32 32 32 32 31 31 31 32
35 35 34 35 35 34 34 34 34 34 33 34 34 34 35 35 35 35 33 32 31 31 32 33 33 33 33 33 33 34 34 34 34 33 33 33 33 33 33 33 33 33 33
33 34 32 34 33 33 34 32 32 33 34 35 35 33 33 33 34 35 36 34 33 33 34 34 34 34 35 35 34 35 35 35 35 34 34 34 34 34 35 35 35 35 35
29 31 31 31 33 33 33 32 32 32 32 33 34 34 34 34 34 33 34 35 35 36 35 34 35 35 36 36 36 36 37 36 36 36 36 36 36 36 36 37 37 37 37
27 29 29 28 31 31 32 33 33 33 33 33 33 34 35 34 33 33 34 34 34 34 35 35 35 36 37 37 38 38 39 39 39 38 38 38 38 38 38 38 38 38 38
28 28 29 29 29 31 32 31 32 32 33 34 34 34 34 34 33 33 33 34 34 35 36 37 37 37 38 38 39 39 40 41 41 40 39 38 39 39 39 39 39 39 39
28 27 29 28 28 30 32 33 32 32 33 34 34 34 33 34 34 35 35 36 36 37 38 39 39 39 39 40 41 41 42 42 41 41 40 39 39 40 40 40 40 40 41
Wind_Direction
236 235 234 232 232 233 235 237 239 242 244 245 247 249 252 254 254 256 256 258 262 265 268 274 279 281 286 288 287 288 291 294 296 299 301 303 304 305 304 302 301 300 301
235 235 234 234 234 234 236 239 242 243 246 247 249 250 251 250 253 254 256 260 262 265 268 270 274 279 281 282 285 287 289 291 292 294 297 299 301 302 302 303 303 301 299
234 235 236 236 236 235 236 240 243 244 246 249 251 252 252 250 251 253 255 260 262 265 266 268 271 275 277 280 283 286 289 291 292 293 295 298 300 301 300 300 302 302 301
234 235 237 237 236 236 237 240 244 245 247 249 251 252 252 251 251 253 256 260 262 264 265 267 271 274 276 279 283 286 289 291 291 294 296 297 298 298 299 300 300 301 302
234 235 237 236 236 237 238 240 243 246 247 249 251 253 253 252 252 253 256 259 261 262 263 266 271 274 275 278 281 285 287 290 292 294 296 297 297 297 298 298 298 299 299
234 234 235 235 235 236 238 240 241 244 247 249 250 252 253 252 252 253 254 258 259 261 263 265 269 273 274 276 280 284 287 290 293 295 297 297 297 296 297 297 298 298 297
234 235 236 234 234 234 236 238 241 243 245 249 249 250 251 252 253 253 254 257 258 259 262 265 268 271 272 274 278 282 285 288 292 294 295 296 296 295 296 297 298 299 298
235 235 235 234 234 234 235 238 241 242 245 247 250 249 250 251 252 252 254 257 257 258 261 265 267 269 270 274 278 281 283 287 291 292 294 295 295 294 294 296 298 298 298
235 235 234 234 233 234 234 236 240 242 244 246 247 250 250 249 251 252 254 255 255 258 261 264 267 268 271 274 277 279 282 286 288 290 291 292 292 292 293 295 297 297 297
235 234 233 233 233 233 234 236 239 242 243 244 246 248 250 249 249 251 253 255 255 258 261 263 265 269 273 275 278 280 281 284 286 287 289 290 291 292 293 295 296 296 296
235 233 232 232 232 232 234 236 239 241 243 243 244 245 247 249 249 251 253 255 256 258 261 262 264 269 272 274 277 280 282 285 285 286 288 289 290 292 293 295 295 295 294
233 232 232 233 232 232 233 235 238 241 243 244 243 245 245 247 250 252 253 255 258 259 261 263 264 267 271 273 275 278 282 285 286 287 288 289 290 290 292 294 294 293 293
232 232 232 233 233 233 233 234 238 240 242 243 243 245 246 245 249 252 256 256 257 259 261 264 264 266 269 272 273 277 281 283 286 287 287 288 288 289 290 291 292 293 294
231 231 231 232 233 232 233 234 236 239 241 242 243 243 246 247 248 251 256 258 258 260 262 263 264 267 269 271 273 276 279 282 284 286 287 287 287 287 289 289 290 292 292
230 230 231 232 230 231 232 233 235 239 240 242 243 244 246 248 251 252 256 258 258 260 262 263 264 266 268 270 273 275 277 281 283 285 286 287 286 287 287 288 288 289 290
229 227 228 229 229 232 233 233 235 238 240 242 243 245 247 250 252 254 254 257 258 260 262 264 264 266 268 270 273 274 276 280 282 284 284 285 286 286 286 286 287 287 288
228 228 228 229 229 231 233 234 235 238 241 243 244 245 247 250 251 254 254 256 258 259 261 265 265 265 267 269 272 274 276 280 282 283 283 284 285 284 285 285 285 286 287
225 226 229 228 229 231 233 235 236 239 242 245 246 245 247 250 252 254 255 256 257 259 261 264 267 266 267 270 272 274 275 279 281 283 283 283 283 284 284 285 285 286 287
225 227 228 227 230 231 233 234 236 240 242 246 248 247 247 250 253 254 255 257 258 260 261 264 267 268 269 270 272 273 275 278 281 283 283 283 282 283 284 285 286 286 287
227 227 228 227 229 231 233 235 237 239 242 244 247 249 249 250 252 255 256 257 258 260 262 263 266 268 271 271 271 274 275 277 280 283 283 282 282 282 282 284 285 286 286
226 228 227 227 230 232 235 237 239 240 241 245 248 251 251 251 252 255 257 258 259 260 262 265 266 268 270 272 272 273 276 276 278 281 282 281 281 281 281 283 284 285 285
226 229 229 231 234 236 237 238 239 241 244 248 251 254 254 254 255 257 258 260 261 263 264 265 267 268 270 272 273 274 275 276 277 279 280 280 280 280 281 283 283 284 284
229 231 234 236 234 237 237 239 240 243 246 249 251 254 257 258 259 260 260 262 264 265 266 267 269 270 270 272 273 274 275 276 276 277 279 279 280 280 281 282 283 283 284
230 234 237 237 235 236 236 238 241 244 247 250 252 254 256 258 259 260 262 263 264 265 266 268 269 270 270 272 274 275 276 276 276 276 278 279 279 280 281 282 283 283 283
235 240 240 238 236 236 236 239 243 244 247 250 252 253 255 256 257 258 261 261 263 265 267 268 270 272 273 273 274 275 276 277 276 275 276 278 278 279 280 281 281 281 282
238 244 245 239 237 238 238 241 245 247 248 251 253 255 255 255 255 257 259 261 263 265 268 269 271 272 274 274 275 277 278 277 277 277 276 276 277 278 279 279 279 281 281
Height
5845 5846 5848 5849 5850 5851 5852 5853 5854 5855 5855 5856 5857 5858 5859 5860 5861 5862 5863 5863 5864 5865 5865 5866 5867 5867 5867 5868 5868 5868 5869 5869 5869 5869 5869 5869 5869 5868 5868 5868 5867 5867 5866
5842 5843 5845 5846 5847 5848 5849 5850 5851 5852 5853 5854 5855 5856 5857 5858 5859 5860 5861 5862 5862 5863 5864 5865 5865 5866 5866 5866 5867 5867 5867 5867 5867 5867 5867 5867 5867 5867 5866 5866 5865 5865 5864
5838 5840 5841 5843 5844 5845 5847 5848 5849 5850 5851 5852 5853 5854 5855 5856 5857 5858 5859 5860 5860 5861 5862 5863 5863 5864 5864 5865 5865 5865 5865 5865 5865 5865 5865 5865 5865 5864 5864 5864 5863 5862 5862
5834 5835 5837 5839 5841 5842 5843 5845 5846 5847 5848 5849 5850 5851 5852 5853 5854 5855 5856 5857 5858 5859 5860 5861 5861 5862 5862 5863 5863 5863 5863 5863 5863 5863 5863 5863 5862 5862 5862 5861 5861 5860 5859
5829 5831 5833 5835 5837 5838 5840 5841 5843 5844 5845 5846 5847 5848 5849 5850 5852 5853 5854 5855 5856 5857 5858 5858 5859 5860 5860 5860 5861 5861 5861 5861 5861 5861 5861 5860 5860 5859 5859 5858 5858 5857 5857
5823 5825 5827 5829 5831 5834 5836 5837 5839 5841 5842 5843 5844 5845 5846 5847 5849 5850 5851 5852 5853 5854 5855 5856 5857 5857 5858 5858 5858 5858 5858 5858 5858 5858 5858 5858 5857 5857 5856 5855 5855 5854 5853
5817 5819 5822 5824 5826 5828 5831 5833 5835 5836 5838 5839 5840 5842 5843 5844 5846 5847 5848 5849 5850 5851 5852 5853 5854 5854 5855 5855 5855 5855 5855 5855 5855 5855 5855 5855 5854 5854 5853 5852 5851 5851 5850
5810 5813 5816 5818 5820 5823 5826 5828 5830 5832 5834 5835 5836 5838 5839 5841 5842 5843 5845 5846 5847 5848 5849 5850 5851 5851 5852 5852 5852 5852 5852 5852 5852 5852 5852 5851 5851 5850 5849 5849 5848 5847 5846
5803 5806 5809 5811 5814 5817 5820 5823 5825 5827 5829 5831 5832 5834 5835 5837 5838 5840 5841 5842 5844 5845 5846 5847 5847 5848 5848 5849 5849 5849 5849 5849 5849 5848 5848 5848 5847 5846 5846 5845 5844 5843 5842
5795 5799 5802 5805 5808 5811 5814 5817 5819 5822 5824 5826 5828 5829 5831 5833 5834 5836 5837 5838 5840 5841 5842 5843 5844 5844 5845 5845 5845 5845 5845 5845 5845 5845 5844 5844 5843 5842 5842 5841 5840 5839 5838
5788 5791 5795 5798 5801 5804 5807 5811 5813 5816 5819 5821 5823 5824 5826 5828 5830 5831 5833 5834 5835 5837 5838 5839 5840 5840 5841 5841 5841 5841 5841 5841 5841 5840 5840 5839 5839 5838 5837 5836 5835 5835 5834
5780 5784 5788 5791 5795 5798 5801 5804 5807 5810 5813 5815 5817 5819 5821 5823 5825 5826 5828 5829 5831 5832 5833 5834 5835 5836 5836 5837 5837 5837 5837 5837 5836 5836 5835 5835 5834 5833 5833 5832 5831 5830 5829
5773 5777 5780 5784 5788 5791 5795 5798 5801 5804 5807 5810 5812 5814 5816 5817 5819 5821 5823 5824 5826 5827 5828 5829 5830 5831 5832 5832 5832 5832 5832 5832 5832 5831 5830 5830 5829 5829 5828 5827 5826 5825 5824
5765 5769 5773 5777 5780 5784 5788 5791 5795 5798 5801 5803 5806 5808 5810 5812 5814 5816 5817 5819 5821 5822 5823 5824 5825 5825 5826 5827 5827 5827 5827 5827 5826 5826 5825 5825 5824 5824 5823 5822 5821 5820 5819
5757 5761 5765 5769 5773 5777 5781 5785 5789 5792 5795 5798 5800 5802 5805 5806 5808 5810 5812 5813 5815 5816 5817 5818 5819 5820 5820 5821 5822 5822 5822 5821 5821 5821 5820 5819 5819 5818 5817 5817 5816 5815 5814
5749 5754 5758 5761 5766 5770 5775 5779 5782 5786 5788 5792 5794 5796 5799 5801 5802 5803 5806 5807 5809 5810 5811 5812 5813 5814 5814 5815 5816 5816 5816 5816 5816 5815 5815 5814 5813 5813 5812 5811 5810 5809 5808
5742 5747 5751 5755 5759 5764 5768 5772 5776 5780 5783 5785 5788 5790 5792 5794 5796 5797 5799 5801 5803 5804 5805 5806 5806 5807 5808 5809 5809 5810 5810 5810 5810 5809 5809 5808 5807 5807 5806 5805 5804 5803 5802
5735 5740 5744 5748 5753 5757 5761 5766 5770 5773 5776 5779 5781 5783 5786 5788 5789 5791 5793 5795 5796 5797 5798 5799 5800 5801 5802 5802 5803 5803 5804 5804 5803 5803 5802 5802 5801 5801 5800 5799 5798 5797 5796
5728 5733 5737 5742 5746 5751 5755 5759 5763 5767 5770 5772 5774 5776 5779 5781 5782 5784 5787 5788 5790 5791 5792 5793 5794 5794 5795 5796 5796 5796 5797 5797 5797 5796 5796 5795 5795 5794 5793 5793 5792 5790 5789
5722 5726 5731 5735 5739 5743 5747 5752 5756 5759 5762 5765 5767 5769 5772 5774 5776 5777 5779 5781 5783 5784 5786 5786 5787 5787 5788 5789 5789 5789 5789 5790 5789 5789 5789 5788 5788 5787 5786 5786 5785 5784 5782
5716 5720 5724 5729 5733 5737 5741 5745 5749 5752 5755 5758 5760 5762 5765 5767 5769 5770 5772 5774 5776 5777 5778 5779 5780 5780 5781 5781 5782 5782 5782 5782 5782 5781 5781 5780 5780 5779 5779 5778 5777 5776 5775
5711 5715 5719 5723 5727 5731 5735 5738 5742 5745 5748 5751 5753 5755 5757 5760 5762 5763 5765 5766 5768 5770 5770 5771 5772 5773 5773 5773 5774 5774 5774 5774 5774 5773 5773 5773 5772 5771 5771 5770 5769 5768 5767
5706 5710 5713 5718 5721 5725 5728 5732 5735 5738 5741 5744 5746 5748 5750 5752 5754 5756 5757 5759 5760 5762 5763 5763 5764 5765 5765 5765 5765 5766 5766 5766 5765 5765 5764 5764 5764 5763 5762 5762 5761 5760 5759
5701 5704 5708 5712 5715 5719 5722 5725 5728 5731 5734 5736 5738 5740 5743 5745 5747 5748 5750 5752 5753 5754 5755 5755 5756 5756 5756 5757 5757 5757 5757 5757 5757 5757 5756 5755 5755 5754 5753 5752 5751 5750 5749
5697 5700 5703 5706 5709 5713 5716 5719 5721 5723 5726 5728 5730 5732 5734 5736 5738 5740 5742 5743 5744 5745 5746 5747 5747 5747 5748 5748 5748 5748 5747 5747 5747 5747 5747 5746 5745 5744 5744 5743 5742 5741 5740
5691 5695 5697 5700 5703 5706 5709 5712 5714 5716 5718 5720 5722 5724 5726 5728 5730 5732 5733 5735 5736 5737 5737 5738 5738 5738 5738 5738 5738 5738 5737 5737 5737 5737 5737 5736 5735 5734 5733 5732 5732 5731 5729